RH
21 18 16 12 10 9 9 9 9 8 8 8 8 7 7 7 7 7 7 7 7 7 7 7 6 7 6 6 6 6 6 6 6 6 6 6 6 6 6 7 7 7 7 6 6 6 6 6 6 6 6 6 6 6 6 6 6 6 7 9 13 17 22 24 26 27 27 27 26 25 24 22 20 18 16 16 17 18 19 19 18 16 15 14 15 16 17 19 20 21 22 23 22 21 22 22 22 22 22 21 21 20 20
21 18 16 13 11 10 10 10 9 9 8 8 8 8 7 7 7 7 7 7 7 7 7 7 7 7 7 7 6 7 7 7 7 7 7 7 7 7 7 7 7 7 7 7 7 7 7 7 7 7 7 7 7 7 7 7 7 7 7 8 10 15 22 21 23 25 26 25 23 22 21 20 19 17 15 14 14 15 17 18 17 16 15 14 13 13 14 15 17 19 20 20 20 20 20 20 21 21 21 21 21 21 20
21 19 16 14 12 11 10 10 10 9 8 8 8 8 8 8 8 8 8 8 8 8 8 8 8 8 7 7 7 7 7 7 8 8 8 8 8 8 8 8 8 8 8 8 8 8 8 8 8 8 8 7 7 7 7 7 7 7 7 7 9 12 17 19 21 22 22 21 20 19 18 18 17 16 14 12 12 12 14 16 16 16 16 14 13 13 12 13 14 15 18 19 20 20 19 19 20 20 20 20 20 20 20
20 18 15 14 12 11 10 10 10 9 9 9 8 8 8 8 8 8 8 8 8 8 8 8 8 8 8 8 8 8 8 8 8 8 8 8 8 8 8 9 8 8 8 8 8 8 8 8 8 8 8 8 8 8 7 7 7 7 7 7 7 10 14 16 19 22 22 21 19 18 17 18 16 14 13 11 10 10 10 12 13 14 15 15 14 13 12 12 12 12 14 16 17 18 19 19 18 17 17 18 18 18 18
20 18 16 14 13 12 11 11 10 10 9 9 9 8 8 8 8 8 9 9 9 9 9 9 9 9 9 9 9 9 9 9 9 9 9 9 9 9 9 9 9 9 9 9 9 9 9 9 9 9 9 9 8 8 8 8 7 7 7 7 7 8 10 12 15 18 18 19 19 19 18 18 16 13 12 10 10 9 9 9 10 10 12 13 13 13 12 11 11 11 11 13 14 16 17 18 17 17 17 17 17 17 17
20 18 16 14 13 12 11 11 11 10 10 9 9 9 9 9 9 9 9 9 9 9 9 9 9 9 9 9 9 9 9 9 9 9 9 10 10 10 10 10 10 10 10 10 10 10 9 9 9 9 9 9 9 9 8 8 8 7 7 7 7 7 8 9 9 10 11 15 15 15 15 15 14 13 11 10 10 9 9 9 8 8 8 10 11 12 12 11 11 11 11 11 12 13 14 15 16 16 16 17 17 16 16
20 18 16 15 13 12 12 11 11 10 10 10 10 10 9 9 9 9 9 9 9 9 9 9 10 10 10 10 10 10 10 10 10 10 10 10 10 10 10 10 10 10 10 10 10 10 10 10 10 9 9 9 9 9 9 9 8 8 8 8 8 8 8 8 9 9 9 10 10 11 10 10 11 11 10 9 9 9 9 8 8 8 8 8 8 9 10 10 10 10 10 10 11 12 12 13 14 15 16 17 17 16 16
19 17 16 14 13 11 11 12 12 11 10 10 10 10 10 10 9 9 9 9 9 9 9 9 10 10 10 10 10 10 10 10 10 10 10 10 10 11 11 11 10 11 10 10 10 10 10 10 10 10 10 10 10 10 9 9 9 9 9 9 9 9 8 9 9 9 9 9 9 9 9 9 9 9 9 9 9 9 9 9 8 8 8 8 8 8 9 9 10 9 10 10 10 11 12 12 12 13 14 16 16 16 16
18 16 15 14 12 11 11 11 11 11 11 11 10 10 10 10 10 9 9 9 9 9 9 9 10 10 10 10 10 10 10 10 10 10 10 10 10 10 10 10 10 10 10 10 10 10 10 10 10 10 10 10 10 10 10 10 10 10 10 10 10 10 9 9 9 9 9 9 9 9 9 9 9 9 9 9 9 9 9 9 9 8 8 8 9 9 9 9 9 9 9 10 10 11 11 12 12 13 13 15 16 17 17
17 16 15 13 12 11 11 10 11 11 12 11 11 11 11 10 10 10 10 9 9 9 9 9 10 10 10 10 10 10 10 10 10 10 10 10 10 10 10 10 10 10 10 10 10 10 10 10 10 10 10 10 10 10 10 10 10 10 10 10 10 10 10 10 10 10 10 10 10 10 10 10 10 9 10 10 10 10 10 10 10 9 9 9 9 10 9 9 10 10 10 10 10 10 11 12 12 13 13 13 15 16 16
16 15 14 13 12 11 11 11 11 11 12 12 12 12 11 11 11 10 10 10 10 10 10 10 10 10 10 10 10 10 10 10 9 9 9 9 9 9 9 9 9 9 10 10 9 10 9 10 10 10 10 10 10 10 10 10 10 10 10 10 10 10 10 10 10 10 10 10 10 10 10 10 10 10 10 10 10 10 10 10 10 10 10 10 10 10 10 10 10 10 10 10 10 10 11 11 12 13 13 13 14 15 16
16 15 14 13 12 12 11 11 11 12 13 13 13 13 12 11 11 11 11 10 10 10 10 10 10 10 10 10 10 10 10 10 9 9 9 9 9 9 9 9 9 9 9 9 9 9 9 9 9 9 9 9 10 10 10 10 10 10 10 10 10 10 10 10 10 10 10 10 10 10 10 10 11 11 11 11 11 11 11 11 11 11 11 10 10 10 11 11 11 11 10 10 10 10 10 11 12 12 13 14 14 14 15
15 15 14 13 12 12 11 11 11 12 12 13 14 13 13 12 12 12 11 11 11 11 11 11 11 11 11 11 10 10 10 10 10 9 9 9 9 9 9 9 9 9 9 9 9 9 9 9 9 9 9 9 9 9 9 10 9 10 10 10 10 10 10 10 10 10 10 10 10 10 10 11 11 11 11 11 11 11 11 11 11 11 11 11 11 11 11 11 11 11 11 11 11 11 11 11 11 12 12 13 14 14 15
15 15 15 14 13 12 12 12 12 12 13 14 14 14 14 13 13 12 12 12 12 12 12 12 12 12 11 11 11 11 10 10 10 10 10 10 9 9 9 9 9 9 9 9 9 9 9 9 9 9 9 9 9 9 9 9 9 9 10 9 10 10 10 10 10 10 10 10 10 10 10 11 11 11 11 11 11 11 11 11 11 11 11 11 11 11 11 11 11 11 11 11 11 11 11 11 11 11 12 12 13 14 15
15 15 15 14 14 13 13 13 12 12 13 13 14 14 15 14 14 13 13 13 13 13 13 13 13 12 12 12 12 12 11 11 10 10 10 10 10 10 9 9 9 9 9 9 9 9 9 9 9 9 9 9 9 9 9 9 9 9 9 9 9 10 10 10 10 10 10 10 10 10 10 10 11 11 11 11 11 11 11 11 11 11 11 11 11 11 11 11 11 11 11 11 11 11 11 11 11 11 11 11 12 13 14
16 16 16 15 14 14 13 13 13 13 13 13 14 14 15 15 15 14 14 14 14 14 14 14 13 13 13 13 13 13 12 12 12 11 11 11 11 11 10 10 10 10 10 10 10 9 9 10 10 9 9 9 9 9 9 9 9 9 9 9 9 10 10 10 10 10 10 10 10 10 10 10 10 11 11 11 11 11 11 11 11 11 11 11 11 11 11 11 11 11 11 11 11 11 11 11 11 11 11 11 12 12 13
17 16 16 16 15 15 14 14 14 13 13 13 14 15 15 15 15 15 15 15 15 15 15 15 14 14 14 14 14 13 13 13 13 13 12 12 12 12 12 11 11 11 10 10 10 10 10 10 10 10 10 10 10 10 10 10 10 10 10 10 10 10 10 10 10 10 10 10 10 10 10 11 11 11 11 11 11 11 11 11 11 11 11 11 11 12 12 12 11 11 11 11 11 11 11 11 11 11 11 11 11 11 12
18 17 17 16 16 15 15 14 14 14 14 14 14 15 15 15 16 16 15 15 15 15 15 15 15 15 15 15 14 14 14 14 14 14 13 13 13 13 13 13 12 12 12 11 11 11 11 11 11 10 10 10 10 10 10 10 10 10 10 10 10 10 10 10 10 10 10 10 10 10 11 11 11 11 11 12 12 12 12 12 12 12 12 12 12 12 12 12 12 12 12 12 12 11 11 12 12 12 12 12 12 12 12
19 18 17 17 16 16 15 15 15 15 15 15 15 15 15 15 15 15 15 15 15 15 15 15 16 16 15 15 15 15 14 15 15 14 14 14 14 14 14 14 14 13 13 13 13 12 12 12 12 11 11 11 11 11 11 11 11 10 10 10 10 10 10 10 10 10 11 11 11 11 11 11 11 12 12 12 12 12 12 12 12 12 12 12 12 12 12 13 13 13 13 13 13 12 12 13 13 13 13 13 13 13 13
19 19 18 18 17 16 16 15 15 15 15 15 15 15 15 15 15 15 15 15 15 15 15 15 16 16 16 16 15 15 15 15 15 15 15 15 15 15 15 15 15 15 14 14 14 14 14 13 13 13 12 12 12 12 12 12 11 11 11 11 11 11 11 11 11 11 11 11 11 11 11 11 11 12 12 12 12 12 12 12 13 13 13 13 13 13 13 14 14 14 14 14 14 14 14 14 13 14 13 13 13 14 14
19 20 19 19 18 17 17 16 16 16 15 15 15 15 15 15 15 15 15 15 15 15 15 15 15 15 15 15 16 16 16 16 16 16 16 16 16 16 16 16 16 16 16 15 15 15 15 14 14 14 14 13 13 13 13 13 13 12 12 12 12 12 12 12 11 11 11 11 12 12 12 12 12 12 12 12 12 12 12 12 13 13 13 13 13 14 14 14 14 15 15 15 15 15 15 15 14 14 14 14 14 14 15
19 20 20 20 19 19 18 17 17 16 16 16 16 16 15 15 15 15 15 15 15 15 15 15 15 15 15 15 15 16 16 16 16 16 16 16 16 16 16 16 16 16 16 16 16 16 16 16 15 15 15 15 15 14 14 14 14 14 13 13 13 13 13 12 12 12 12 12 12 12 12 12 12 12 12 12 12 12 12 13 13 13 13 13 13 14 14 14 15 15 16 16 16 17 16 16 16 16 15 15 15 15 16
18 19 20 20 20 19 19 18 18 17 17 16 16 16 16 16 16 16 16 15 15 15 15 15 15 15 15 15 15 15 15 15 16 16 16 16 16 16 16 16 17 17 17 17 17 17 16 16 16 16 16 16 16 16 16 15 15 15 15 14 14 14 14 13 13 13 13 13 12 12 12 13 13 12 12 12 12 12 13 13 13 13 13 13 13 13 14 14 15 15 16 16 17 17 17 18 17 17 17 17 16 16 16
17 17 18 19 19 19 19 19 18 18 18 17 17 17 17 16 16 16 16 16 16 16 16 16 15 15 15 15 15 15 15 15 15 16 16 16 16 16 17 17 17 17 17 17 17 17 17 17 17 17 17 17 17 17 16 16 16 16 16 16 16 15 15 15 14 14 14 14 13 13 13 13 13 13 13 13 13 13 13 13 13 13 13 13 13 13 14 14 15 15 16 16 17 17 18 18 18 18 18 18 18 18 18
17 17 18 19 19 19 19 19 19 19 18 18 17 17 17 17 17 16 16 16 16 16 16 16 15 15 15 15 15 14 15 15 15 15 16 16 16 16 16 17 17 17 17 17 17 17 17 17 17 17 17 17 17 17 17 17 17 17 17 17 17 16 16 16 16 15 15 15 14 14 14 14 14 14 13 13 13 13 13 13 13 13 13 13 13 14 14 14 15 15 16 16 17 17 18 19 19 19 19 19 19 19 19
18 18 18 19 19 19 20 20 20 19 19 18 18 18 18 17 17 17 17 16 16 16 16 16 16 15 15 15 15 15 14 15 15 15 15 15 16 16 16 16 16 17 17 17 17 17 17 17 17 17 18 18 18 18 18 18 18 18 18 18 18 17 17 17 17 17 16 16 16 15 15 15 14 14 14 14 14 13 13 13 13 13 14 14 14 14 15 15 15 16 16 16 17 18 18 19 19 20 20 20 20 20 20
19 19 19 19 19 20 20 20 20 20 20 20 19 19 19 19 18 18 18 17 17 17 16 16 16 16 15 15 15 15 15 15 15 15 15 15 15 16 16 16 16 16 17 17 17 17 17 17 17 18 18 18 18 18 18 18 18 18 19 19 19 19 18 18 18 18 18 17 17 17 16 16 16 16 15 15 14 14 14 14 14 14 14 14 15 15 15 15 16 17 17 17 18 18 19 19 20 20 20 20 20 21 21
20 20 20 20 20 20 21 21 21 21 21 21 21 21 20 20 20 19 19 19 18 18 18 17 17 16 16 16 16 16 15 15 15 15 15 15 15 16 16 16 16 16 16 17 17 17 17 17 18 18 18 18 18 18 18 18 19 19 19 19 19 19 19 19 19 19 19 19 18 18 18 17 17 17 16 16 16 15 15 15 14 14 14 14 15 15 16 16 17 17 18 19 19 19 20 20 20 21 21 21 21 21 22
21 20 21 20 21 21 21 21 22 22 22 22 23 22 22 22 22 22 21 21 20 20 20 19 19 18 18 17 17 17 17 16 16 16 16 16 16 15 16 16 16 16 16 17 17 17 17 17 17 18 18 18 18 18 18 18 19 19 19 19 19 19 20 20 20 20 20 20 20 19 19 19 18 18 18 17 17 16 16 15 15 15 15 15 15 15 16 17 18 19 19 20 20 21 21 21 22 22 22 22 22 22 23
21 21 21 22 21 22 22 22 22 23 23 24 24 24 24 24 24 24 23 23 22 22 22 22 21 21 20 20 19 19 19 18 18 18 17 17 16 16 16 16 16 16 16 16 17 17 17 17 18 18 18 18 18 18 18 19 19 19 19 19 19 20 20 20 20 20 20 20 20 20 20 20 20 19 19 18 18 17 17 16 16 15 15 15 15 16 17 18 19 20 21 21 22 22 22 23 23 24 24 24 24 24 24
21 22 22 22 22 22 22 22 23 23 23 24 24 25 25 25 25 25 25 25 24 24 24 24 23 23 23 22 22 21 21 21 20 20 19 19 18 18 17 17 17 16 17 16 17 17 17 17 17 18 18 18 18 18 18 19 19 19 19 19 19 20 20 20 20 20 20 21 20 20 20 20 20 20 20 19 19 18 18 17 17 16 16 16 16 17 18 19 21 22 23 24 24 24 23 24 25 25 26 26 26 26 26
22 22 22 23 22 23 23 23 23 23 24 24 25 25 26 26 26 26 26 26 25 25 25 25 25 25 25 24 24 23 23 23 22 21 21 21 20 20 19 19 18 18 17 17 17 17 17 17 17 18 18 18 18 18 18 18 19 19 19 19 19 19 20 20 20 20 20 20 20 20 20 20 20 20 20 20 20 19 19 18 18 17 17 18 18 19 20 22 23 25 27 27 27 26 27 27 27 27 28 28 28 28 28
23 23 23 23 23 23 24 24 23 23 23 24 24 25 25 26 26 26 26 26 26 26 26 26 26 26 26 25 25 24 24 24 24 23 23 22 22 21 21 21 20 19 19 18 18 18 18 18 18 18 18 18 18 18 18 18 19 19 19 19 19 19 19 20 20 20 20 20 20 20 20 20 20 20 20 20 20 20 20 19 19 18 18 18 19 20 21 25 26 27 30 31 31 32 33 32 31 30 29 30 30 30 30
23 23 23 23 23 24 24 24 23 23 24 24 24 25 25 25 26 26 26 27 27 27 27 27 27 27 26 26 26 25 25 25 25 24 24 23 23 23 23 23 22 22 21 20 20 19 19 19 19 19 19 19 19 19 19 19 19 19 19 19 19 19 19 19 19 19 19 20 20 20 20 20 20 20 20 20 20 20 20 20 20 20 19 19 19 20 21 24 27 29 31 34 35 35 36 36 35 33 33 33 33 33 33
23 23 23 23 24 24 24 24 23 23 24 24 24 24 25 25 25 26 26 27 27 27 27 27 27 27 27 27 26 26 26 25 25 25 25 24 24 24 24 24 24 23 23 22 22 21 21 20 20 20 20 20 20 20 20 19 19 19 19 19 19 19 19 19 19 19 19 19 19 19 20 20 20 20 20 20 20 21 21 21 21 21 21 21 21 21 21 23 25 29 33 35 36 37 37 38 38 38 37 37 36 36 35
23 23 23 23 23 24 24 23 24 24 24 24 24 25 25 25 25 26 26 26 27 27 27 27 28 28 27 27 27 26 26 26 26 25 25 25 24 25 25 24 24 24 24 24 23 23 23 22 22 22 21 21 21 21 20 20 20 20 19 19 19 19 19 19 19 19 19 19 19 19 19 20 20 20 20 20 21 21 21 21 22 22 22 22 22 23 23 23 24 27 33 36 38 40 39 39 39 39 40 40 39 38 38
23 23 23 23 24 23 24 23 23 24 24 24 25 25 25 25 25 26 26 26 27 27 27 28 28 28 27 27 27 27 26 26 26 26 25 25 25 25 25 25 25 25 25 24 24 24 24 23 23 23 22 22 22 22 21 21 20 20 20 19 19 19 19 19 19 19 19 19 19 19 20 20 20 20 20 21 21 21 22 22 22 23 23 24 24 24 24 25 26 27 30 34 37 40 41 41 41 41 41 41 41 41 40
24 24 24 24 24 24 24 23 23 24 24 25 25 25 25 25 26 26 26 26 26 27 27 27 27 27 27 27 27 27 27 27 26 26 25 25 25 25 25 25 25 25 24 24 24 24 24 23 23 23 23 22 22 22 21 21 21 20 20 20 20 20 20 20 20 20 20 20 20 20 20 20 21 21 21 21 22 22 22 23 23 24 24 25 25 26 26 27 27 28 30 31 34 37 39 40 41 42 42 42 42 42 42
25 25 24 24 24 24 24 24 24 24 25 25 25 25 25 26 26 26 26 26 26 26 27 27 27 27 27 27 27 27 27 27 26 26 26 26 25 25 25 25 25 24 24 24 24 24 23 23 23 23 23 22 22 22 22 22 21 21 21 21 20 20 20 20 20 21 21 21 21 21 21 21 21 22 22 23 23 23 24 24 25 25 26 26 27 27 28 28 29 29 31 32 33 35 36 39 41 43 43 43 42 42 43
26 26 25 25 24 24 24 24 24 24 25 25 25 25 25 26 26 26 26 26 26 26 26 27 27 27 26 26 26 26 26 26 26 26 26 26 25 25 25 25 25 24 24 24 23 23 23 23 22 22 22 22 22 22 22 22 21 21 21 21 21 21 21 21 21 22 22 22 22 22 22 23 23 23 23 24 24 24 25 26 26 26 27 27 28 28 29 29 30 31 32 32 34 35 37 39 41 44 45 45 44 43 44
28 27 27 26 25 25 24 24 24 25 25 25 25 25 25 26 26 26 26 26 26 26 26 27 27 27 26 26 26 26 25 25 25 26 25 25 25 25 25 25 24 24 24 24 23 23 23 22 22 22 22 22 22 22 22 22 22 22 22 22 22 22 22 23 23 23 23 23 23 24 24 24 25 25 25 26 26 26 26 27 27 27 28 29 29 29 30 30 31 31 32 33 34 35 37 38 41 43 46 46 46 45 45
30 29 28 28 27 26 26 26 26 26 26 25 26 26 26 26 26 26 26 26 26 26 26 26 26 26 26 26 25 25 25 24 24 24 24 24 25 24 24 24 24 24 24 24 23 23 23 23 23 23 23 23 23 23 23 23 23 23 23 23 23 24 24 24 24 24 25 25 25 26 26 26 27 27 27 27 28 28 28 28 28 29 29 29 30 30 31 31 32 32 33 33 34 35 36 37 39 42 45 46 47 47 47
32 31 30 30 29 28 28 28 27 27 27 27 27 26 26 26 26 26 26 26 26 26 25 25 25 25 25 25 25 25 25 24 24 24 24 24 23 23 23 23 23 23 23 23 24 23 23 23 23 24 24 23 23 23 23 24 24 24 25 25 25 25 26 26 26 26 27 27 27 27 28 28 28 29 29 29 29 29 29 29 30 30 30 30 31 31 31 32 32 33 33 34 34 35 36 37 38 40 43 45 47 48 48
32 32 31 31 31 30 30 30 29 29 29 29 28 28 28 27 27 27 26 26 26 26 25 25 25 25 25 25 25 25 24 24 24 23 23 23 23 23 23 23 23 23 23 23 23 23 24 24 24 24 24 24 24 24 24 25 25 26 26 26 27 27 27 28 28 28 29 29 29 29 29 29 30 30 30 30 30 31 31 31 31 31 31 31 32 32 32 33 33 34 34 35 36 36 37 37 38 40 41 44 47 48 48
31 31 31 31 31 31 31 31 31 31 31 31 31 30 29 29 29 28 28 27 27 27 26 26 26 26 25 25 25 25 25 24 24 24 24 23 23 23 23 23 23 23 23 23 23 24 24 24 24 25 25 25 25 25 26 26 26 27 27 27 28 28 28 29 29 29 30 30 30 30 30 30 30 31 31 31 31 32 32 32 32 32 32 33 33 33 34 34 35 35 36 36 37 37 38 38 39 39 39 42 45 48 48
30 31 31 31 31 31 31 31 32 32 32 32 32 32 32 31 31 31 30 30 29 29 29 28 28 28 27 27 27 26 26 25 25 25 25 25 25 24 24 24 24 24 24 24 24 24 25 25 25 25 25 26 26 26 27 27 27 28 28 28 28 29 29 29 30 30 31 31 31 31 31 32 32 32 32 32 33 33 33 33 34 34 34 34 35 35 35 35 36 36 37 37 38 38 38 39 38 38 38 40 43 45 46
30 30 30 31 31 31 31 31 32 32 32 32 33 33 33 33 33 33 33 33 32 32 32 31 31 31 30 30 29 29 28 28 28 28 28 28 27 27 26 26 26 26 26 26 26 26 27 27 27 27 27 27 27 28 28 28 29 29 29 29 30 30 30 30 31 31 32 32 32 33 33 33 33 34 34 34 34 35 35 35 36 36 36 36 37 37 37 37 37 37 37 37 37 38 38 38 38 37 37 38 39 41 42
31 31 31 31 31 31 31 32 32 32 32 32 33 33 33 33 33 34 34 34 34 34 34 34 34 34 34 33 33 32 32 31 31 31 31 31 30 30 29 29 29 29 29 29 29 28 29 29 29 29 29 29 29 30 30 30 30 31 31 31 31 32 32 32 32 33 33 34 34 34 35 35 35 36 36 36 36 37 37 37 38 38 38 38 38 38 37 37 37 36 36 36 36 36 36 36 36 36 35 35 36 38 40
32 32 32 32 32 32 32 32 33 33 33 33 33 33 33 33 34 34 34 34 34 34 35 35 35 35 35 35 35 35 35 34 34 35 35 34 34 33 33 33 32 32 32 31 31 31 31 31 31 31 31 32 32 32 32 32 33 33 33 33 34 34 34 34 35 35 35 36 36 37 37 37 37 38 38 38 38 38 38 39 39 39 39 39 38 38 37 36 35 35 34 34 34 34 34 34 34 34 34 34 35 36 39
33 34 33 34 34 34 34 34 34 34 34 34 34 34 34 35 35 35 35 35 35 35 35 35 35 35 36 35 36 36 36 36 36 36 37 36 36 36 36 35 35 35 35 34 34 34 34 34 34 34 34 34 35 35 35 35 35 36 36 36 36 37 37 37 37 38 38 38 38 39 39 39 39 39 39 39 39 38 38 38 38 38 38 37 37 36 35 34 34 33 32 32 32 31 31 32 32 32 32 32 33 34 36
36 36 36 36 36 36 36 36 36 36 36 36 37 37 37 37 37 37 37 37 37 37 37 37 37 37 37 37 37 37 38 38 38 38 39 38 38 39 39 39 38 38 37 37 37 37 37 37 37 37 38 38 38 38 38 38 38 38 39 39 39 39 39 39 39 39 39 39 39 40 40 39 39 39 39 38 38 37 37 36 36 35 35 35 34 34 33 32 31 31 30 30 30 29 29 29 30 30 31 31 31 32 33
39 39 39 39 39 39 39 39 39 39 39 39 39 39 39 40 40 40 40 40 40 40 40 40 40 40 40 40 40 40 40 40 40 41 41 41 41 41 42 42 42 41 41 41 40 40 40 40 40 40 40 40 40 40 40 40 40 40 40 40 40 40 40 39 39 39 39 39 39 39 39 38 38 38 37 36 36 35 35 34 33 33 32 32 31 30 30 29 29 29 28 28 27 27 27 27 27 28 28 28 28 29 30
41 41 41 41 41 41 41 41 41 41 41 42 42 42 42 42 42 42 42 42 42 42 41 41 41 41 41 41 41 42 41 41 42 42 42 42 43 43 42 43 43 43 41 41 41 40 40 40 40 39 39 39 39 38 38 38 38 38 38 38 38 37 37 37 36 36 36 36 36 36 36 36 35 35 34 34 33 33 32 31 31 30 29 29 28 28 27 27 26 26 25 25 25 24 24 24 24 25 25 25 26 26 27
41 41 41 41 41 41 41 41 41 41 41 41 41 41 41 41 41 41 41 41 40 40 40 39 39 39 39 39 39 39 39 39 39 40 40 40 40 41 40 39 38 38 37 37 37 35 33 34 35 35 34 34 34 34 34 34 34 34 34 34 34 34 33 33 33 33 33 33 33 33 32 32 32 31 31 31 30 30 29 29 28 27 27 26 25 25 25 24 24 23 23 22 22 22 22 22 22 22 23 23 23 23 24
38 38 38 38 38 38 37 37 37 37 37 37 37 37 37 37 37 37 37 37 36 36 36 35 35 35 35 35 34 34 34 34 35 35 35 35 35 35 35 34 34 33 33 32 31 30 28 28 29 29 28 29 29 30 29 30 30 30 30 30 30 31 31 31 30 30 30 30 30 30 30 29 29 29 28 28 28 27 27 26 26 26 25 25 24 24 23 23 23 22 22 22 22 21 22 21 21 21 22 22 22 22 22
33 33 33 33 33 33 33 33 33 33 33 33 33 33 33 33 33 33 33 33 33 33 32 32 32 31 31 31 31 31 30 31 31 31 32 31 31 31 32 32 32 32 31 30 28 28 27 28 28 28 27 27 27 28 27 28 28 28 28 28 28 28 28 28 28 28 28 28 28 28 28 28 28 27 27 27 26 26 26 25 25 25 25 25 24 24 24 24 24 23 23 23 23 23 22 22 22 22 22 22 22 22 22
29 29 30 30 30 30 30 30 30 30 30 30 31 31 31 31 31 31 31 31 31 31 31 30 30 30 30 30 30 30 30 30 30 30 30 30 31 31 31 32 32 32 32 31 30 30 29 30 30 29 28 27 28 28 28 28 27 28 28 28 28 28 28 27 27 27 27 27 27 27 27 27 27 27 27 27 27 26 26 26 26 26 26 26 26 26 25 25 25 25 25 25 24 24 24 24 24 24 23 23 23 23 22
28 28 28 28 29 29 29 29 29 29 29 29 29 29 30 30 30 30 30 30 30 30 30 30 30 30 30 30 30 30 30 30 30 30 31 31 31 31 32 32 32 32 32 32 32 32 32 32 32 31 30 30 29 29 29 29 29 29 28 28 29 29 29 28 28 28 28 28 28 28 28 28 28 28 27 27 27 27 27 27 27 27 27 27 27 27 26 26 26 26 26 26 26 25 25 25 25 25 25 24 24 24 23
28 28 28 28 28 28 29 29 29 29 29 29 29 29 29 29 29 29 30 29 29 29 30 30 30 30 30 30 30 30 30 30 30 30 31 31 31 31 31 31 32 32 32 32 32 33 33 34 33 33 33 32 31 30 30 30 30 30 29 29 29 29 29 29 29 29 29 29 29 29 29 29 29 29 29 29 29 29 29 29 29 29 29 29 28 28 28 28 27 27 27 27 26 26 26 26 25 25 25 25 25 25 24
27 27 27 27 27 28 28 28 28 28 29 28 29 29 29 29 29 29 28 28 28 28 28 28 29 29 29 29 30 29 29 29 29 30 31 31 30 30 30 31 31 31 32 32 33 33 34 34 34 34 34 34 33 32 31 30 31 31 31 30 30 30 30 30 30 30 30 30 30 30 30 30 30 30 30 30 30 30 30 30 31 31 31 30 30 30 29 29 29 28 28 27 27 27 27 26 26 26 26 26 26 26 26
25 25 26 26 26 27 27 27 28 28 28 28 28 28 28 28 28 28 27 27 27 27 27 27 28 28 28 29 29 29 29 28 28 29 29 30 30 30 30 30 30 30 31 31 32 32 33 33 33 34 34 34 34 34 33 32 31 31 31 31 30 30 30 30 30 30 30 30 30 30 31 31 31 31 31 31 31 31 31 31 31 32 32 32 31 31 31 31 30 30 29 28 28 28 27 27 27 27 27 27 26 27 26